User: anonymous   Login
Location: Fort Wayne
(41.1310°N, 85.1290°W)
Time: 23:41:47
(UTC-04:00)
Language:

OPAL - Orbit

View from above orbital plane
View from above orbital plane
View from above satellite
View from above satellite

Ground track
Ground track

The orbit data is extracted from the following two-line orbital elements,

1 26063U 00004C   17268.50598609 -.00000011 +00000-0 +16305-4 0  9999
2 26063 100.2274 290.7997 0036784 026.9790 333.3292 14.36674890925581
Epoch (UTC): 25 September 2017 12:08:37
Eccentricity: 0.0036784
inclination: 100.2274°
perigee height: 743 km
apogee height: 796 km
right ascension of ascending node: 290.7997°
argument of perigee: 26.9790°
revolutions per day: 14.36674890
mean anomaly at epoch: 333.3292°
orbit number at epoch: 92558

The dashed part of the orbit path shows where the satellite is in the earth's shadow,  

DLR